Weather History for Williston, ND

Change the Weather History Date:

Thursday, May 23, 2013

  Actual Average Record
Temperature  
Mean Temperature 58 °F 56 °F  
Max Temperature 69 °F 70 °F 95 °F (1980)
Min Temperature 46 °F 43 °F 27 °F (2001)
Degree Days  
Heating Degree Days 7 9  
Month to date heating degree days 289 285  
Since 1 July heating degree days 9234 8810  
Cooling Degree Days 0 0  
Month to date cooling degree days 8 0  
Year to date cooling degree days 8 1  
Growing Degree Days 8 (Base 50)    
Moisture  
Dew Point 44 °F    
Average Humidity 64    
Maximum Humidity 86    
Minimum Humidity 42    
Precipitation  
Precipitation 0.00 in 0.07 in 1.52 in (1933)
Month to date precipitation 1.52 1.33  
Year to date precipitation 4.34 4.02  
Snow  
Snow 0.00 in 0.00 in 0.40 in (2002)
Month to date snowfall 0.0 1.2  
Snow Depth 0.00 in    
Sea Level Pressure  
Sea Level Pressure 30.16 in    
Wind  
Wind Speed 15 mph (ESE)    
Max Wind Speed 26 mph    
Max Gust Speed 36 mph    
Visibility 10 miles    
Events      
T = Trace of Precipitation, MM = Missing Value Source: NWS Daily Summary

Daily Weather History Graph

Daily Weather History Graph

Search for Another Location

Airport:

Trip Planner

Search our weather history database for the weather conditions in past years. The results will help you decide how hot, cold, wet, or windy it might be!

Date:

Astronomy

May. 23, 2013 Rise Set
Actual Time 6:05 AM CDT 9:37 PM CDT
Civil Twilight 5:27 AM CDT 10:16 PM CDT
Nautical Twilight 4:35 AM CDT 11:08 PM CDT
Astronomical Twilight 3:25 AM CDT 12:19 AM CDT
Moon 8:07 PM CDT (5/23) 5:00 AM CDT (5/23)
Length of Visible Light 16h 49m
Length of Day
15h 31m
Waxing Gibbous, 97% of the Moon is Illuminated
May 23
Waxing Gibbous
May 24
Full
May 31
Last Quarter
Jun 8
New
Jun 16
First Quarter

Hourly Weather History & Observations

Time (CDT) Temp. Dew Point Humidity Pressure Visibility Wind Dir Wind Speed Gust Speed Precip Events Conditions
12:52 AM 55.0 °F 45.0 °F 69% 30.19 in 10.0 mi East 13.8 mph - N/A   Clear
1:52 AM 52.0 °F 45.0 °F 77% 30.21 in 10.0 mi East 12.7 mph 20.7 mph N/A   Clear
2:52 AM 50.0 °F 45.0 °F 83% 30.22 in 10.0 mi East 8.1 mph - N/A   Clear
3:52 AM 48.9 °F 45.0 °F 86% 30.22 in 10.0 mi East 6.9 mph - N/A   Clear
4:52 AM 48.0 °F 43.0 °F 83% 30.23 in 10.0 mi Calm Calm - N/A   Clear
5:52 AM 48.0 °F 42.1 °F 80% 30.23 in 10.0 mi East 12.7 mph 19.6 mph N/A   Clear
6:52 AM 48.0 °F 41.0 °F 77% 30.23 in 10.0 mi East 10.4 mph - N/A   Clear
7:52 AM 50.0 °F 42.1 °F 74% 30.24 in 10.0 mi ENE 6.9 mph - N/A   Clear
8:52 AM 52.0 °F 43.0 °F 71% 30.23 in 10.0 mi ESE 15.0 mph 20.7 mph N/A   Clear
9:52 AM 55.0 °F 45.0 °F 69% 30.23 in 10.0 mi SE 13.8 mph 20.7 mph N/A   Clear
10:52 AM 60.1 °F 48.0 °F 64% 30.21 in 10.0 mi ESE 15.0 mph - N/A   Clear
11:52 AM 63.0 °F 48.0 °F 58% 30.19 in 10.0 mi ESE 15.0 mph 24.2 mph N/A   Clear
12:52 PM 64.0 °F 46.9 °F 54% 30.17 in 10.0 mi ESE 20.7 mph 28.8 mph N/A   Partly Cloudy
1:52 PM 66.0 °F 45.0 °F 47% 30.16 in 10.0 mi ESE 20.7 mph 31.1 mph N/A   Mostly Cloudy
2:52 PM 66.9 °F 45.0 °F 45% 30.13 in 10.0 mi ESE 23.0 mph 29.9 mph N/A   Overcast
3:52 PM 68.0 °F 44.1 °F 42% 30.11 in 10.0 mi ESE 23.0 mph 34.5 mph N/A   Mostly Cloudy
4:52 PM 68.0 °F 44.1 °F 42% 30.09 in 10.0 mi ESE 23.0 mph 33.4 mph N/A   Partly Cloudy
5:52 PM 66.0 °F 44.1 °F 45% 30.09 in 10.0 mi ESE 24.2 mph 34.5 mph N/A   Clear
6:52 PM 66.0 °F 44.1 °F 45% 30.07 in 10.0 mi ESE 15.0 mph 31.1 mph N/A   Clear
7:52 PM 64.0 °F 43.0 °F 46% 30.06 in 10.0 mi ESE 18.4 mph 31.1 mph N/A   Clear
8:52 PM 62.1 °F 39.9 °F 44% 30.05 in 10.0 mi ESE 17.3 mph 26.5 mph N/A   Clear
9:52 PM 60.1 °F 41.0 °F 49% 30.04 in 10.0 mi ESE 16.1 mph 24.2 mph N/A   Mostly Cloudy
10:52 PM 57.9 °F 42.1 °F 56% 30.05 in 10.0 mi ESE 16.1 mph 25.3 mph N/A   Partly Cloudy
11:52 PM 57.0 °F 43.0 °F 59% 30.04 in 10.0 mi ESE 17.3 mph 25.3 mph N/A   Clear